Sacramento, CA

5:03 AM PST on February 24, 2017 (GMT -0800)
Sacramento Executive

Weather History for KSAC - September, 2013

Change the Weather History Date:

Saturday, September 14, 2013

  Actual Average Record
Temperature  
Mean Temperature 72 °F -  
Max Temperature 85 °F 88 °F 104 °F (1979)
Min Temperature 59 °F 56 °F 43 °F (1970)
Degree Days  
Heating Degree Days 0    
Cooling Degree Days 7    
Growing Degree Days 22 (Base 50)    
Moisture  
Dew Point 54 °F    
Average Humidity 59    
Maximum Humidity 80    
Minimum Humidity 37    
Precipitation  
Precipitation 0.00 in 0.01 in 0.42 in (1955)
Month to date precipitation 0.10 0.10  
Year to date precipitation 4.01 12.05  
Since 1 July precipitation 0.10  
Sea Level Pressure  
Sea Level Pressure 29.72 in    
Wind  
Wind Speed 6 mph (South)    
Max Wind Speed 13 mph    
Max Gust Speed 21 mph    
Visibility 10 miles    
Events      
T = Trace of Precipitation, MM = Missing Value Source: NWS Daily Summary

Daily Weather History Graph

Daily Weather History Graph

Search for Another Location

Airport or City:

Trip Planner

Search our weather history database for the weather conditions in past years. The results will help you decide how hot, cold, wet, or windy it might be!

Date:

Astronomy

Sep. 14, 2013 Rise Set
Actual Time 6:46 AM PDT 7:15 PM PDT
Civil Twilight 6:20 AM PDT 7:41 PM PDT
Nautical Twilight 5:49 AM PDT 8:12 PM PDT
Astronomical Twilight 5:16 AM PDT 8:44 PM PDT
Moon 3:58 PM PDT (9/14) 1:27 AM PDT (9/14)
Length of Visible Light 13h 21m
Length of Day
12h 28m
Waxing Gibbous, 73% of the Moon is Illuminated
Sep 14
Waxing Gibbous
Sep 19
Full
Sep 26
Last Quarter
Oct 4
New
Oct 11
First Quarter

Hourly Weather History & Observations

Time (PDT) Temp. Heat Index Dew Point Humidity Pressure Visibility Wind Dir Wind Speed Gust Speed Precip Events Conditions
12:53 AM 64.0 °F - 53.1 °F 67% 29.72 in 10.0 mi South 5.8 mph - N/A   Clear
1:53 AM 63.0 °F - 53.1 °F 70% 29.71 in 10.0 mi South 3.5 mph - N/A   Clear
2:53 AM 62.1 °F - 53.1 °F 72% 29.72 in 10.0 mi South 4.6 mph - N/A   Clear
3:53 AM 61.0 °F - 53.1 °F 75% 29.72 in 10.0 mi South 4.6 mph - N/A   Clear
4:53 AM 60.1 °F - 53.1 °F 78% 29.73 in 10.0 mi South 4.6 mph - N/A   Clear
5:53 AM 59.0 °F - 53.1 °F 81% 29.74 in 10.0 mi South 4.6 mph - N/A   Clear
6:53 AM 59.0 °F - 53.1 °F 81% 29.75 in 10.0 mi SSW 6.9 mph - N/A   Clear
7:53 AM 60.1 °F - 54.0 °F 80% 29.77 in 10.0 mi SSW 6.9 mph - N/A   Clear
8:53 AM 63.0 °F - 54.0 °F 72% 29.78 in 10.0 mi SW 8.1 mph - N/A   Clear
9:53 AM 68.0 °F - 55.0 °F 63% 29.78 in 10.0 mi SSW 5.8 mph - N/A   Clear
10:53 AM 72.0 °F - 55.9 °F 57% 29.78 in 10.0 mi Variable 6.9 mph - N/A   Clear
11:53 AM 75.0 °F - 55.9 °F 51% 29.77 in 10.0 mi South 6.9 mph - N/A   Clear
12:53 PM 78.1 °F - 55.9 °F 46% 29.74 in 10.0 mi SSW 9.2 mph - N/A   Clear
1:53 PM 82.0 °F 81.6 °F 55.9 °F 41% 29.72 in 10.0 mi SSW 6.9 mph - N/A   Clear
2:53 PM 84.0 °F 82.9 °F 55.0 °F 37% 29.70 in 10.0 mi SSW 10.4 mph 20.7 mph N/A   Clear
3:53 PM 84.0 °F 83.0 °F 55.9 °F 38% 29.68 in 10.0 mi SSW 9.2 mph - N/A   Clear
4:53 PM 82.9 °F 82.1 °F 55.9 °F 39% 29.67 in 10.0 mi South 9.2 mph - N/A   Clear
5:53 PM 81.0 °F 80.8 °F 55.9 °F 42% 29.67 in 10.0 mi SSW 8.1 mph - N/A   Clear
6:53 PM 75.9 °F - 55.9 °F 50% 29.67 in 10.0 mi SSW 8.1 mph - N/A   Clear
7:53 PM 71.1 °F - 55.0 °F 57% 29.68 in 10.0 mi SSW 9.2 mph - N/A   Clear
8:53 PM 68.0 °F - 53.1 °F 59% 29.69 in 10.0 mi SSW 9.2 mph - N/A   Clear
9:53 PM 64.9 °F - 52.0 °F 63% 29.70 in 10.0 mi Variable 6.9 mph - N/A   Clear
10:53 PM 63.0 °F - 53.1 °F 70% 29.71 in 10.0 mi Variable 4.6 mph - N/A   Clear
11:53 PM 62.1 °F - 52.0 °F 70% 29.71 in 10.0 mi SSE 8.1 mph - N/A   Clear